Location: Newark
(12.4436°N, 0.6167°W)
Time: 08:28:06
(UTC+00:00)

deb Explorer IX - Pass Details

Date: 17 December 2019
Orbit: 548 x 1101 km, 38.8° (Epoch: 17 January)

Event Time Altitude Azimuth Distance (km) Brightness Sun altitude
Rises 10:06:03 0° 211° (SSW) 2,710 ? 44.9°
Reaches altitude 10° 10:08:30 10° 200° (SSW) 1,804 ? 45.2°
Maximum altitude 10:12:05 30° 138° (SE) 1,001 ? 45.8°
Drops below altitude 10° 10:15:47 10° 76° (ENE) 1,861 ? 46.3°
Sets 10:18:20 0° 65° (ENE) 2,813 ? 46.6°
